User: anonymous   Login
Location: Niverville
(49.6028°N, 97.0419°W)
Time: 07:19:43
(UTC-06:00)
Language:

Cosmos 2237 Rocket - Orbit

View from above orbital plane
View from above orbital plane
View from above satellite
View from above satellite

Ground track
Ground track

The orbit data is extracted from the following two-line orbital elements,

1 22566U 93016B   17326.56343866 -.00000223 +00000-0 -90508-4 0  9995
2 22566 071.0068 094.4804 0012643 255.6360 104.3359 14.14950562273663
Epoch (UTC): 22 November 2017 13:31:21
Eccentricity: 0.0012643
inclination: 71.0068°
perigee height: 833 km
apogee height: 851 km
right ascension of ascending node: 94.4804°
argument of perigee: 255.6360°
revolutions per day: 14.14950562
mean anomaly at epoch: 104.3359°
orbit number at epoch: 27366

The dashed part of the orbit path shows where the satellite is in the earth's shadow,  

DLR